Regional Weather Roundup
Issued by NWS

Home | Current Version | Previous Version | Text Only | Print | Product List | Glossary On
Versions: 1 2 3 4 5 6 7 8 9 10 11 12 13 14 15 16 17 18 19 20 21 22 23 24 25 26 27 28 29 30 31 32 33 34 35 36 37 38 39 40 41 42 43 44 45 46 47 48 49 50
000
ASHW40 PHFO 242332
RWRHI

WEATHER ROUNDUP FOR HAWAII
NATIONAL WEATHER SERVICE HONOLULU HI
100 PM HST SAT SEP 24 2016

THIS IS AN AUTOMATED REPORT THAT HAS NOT BEEN QUALITY CONTROLLED.

NOTE..."FAIR" INDICATES FEW OR NO CLOUDS BELOW 12,000 FEET WITH NO
SIGNIFICANT WEATHER AND/OR OBSTRUCTIONS TO VISIBILITY.

* - THESE SITES REPORT LIMITED FIELDS

HIZ001>004-250000-
KAUAI-NIIHAU-

CITY           SKY/WX    TMP DP  RH WIND       PRES   REMARKS
LIHUE APT      MOSUNNY   86  72  62 NE13      30.03F HX  92
PORT ALLEN*      N/A     88 N/A N/A E17G25      N/A
POIPU*           N/A     86 N/A N/A E9G18       N/A
PRINCEVILLE*     N/A     84 N/A N/A E10G17      N/A
KOKOLE POINT*    N/A     88 N/A N/A MISG        N/A
MOLOAA DAIRY*    N/A     86  73  66 E7G16       N/A  HX  93
WAIMEA HTS*    NOT AVBL
PUU OPAE*      NOT AVBL
PUU LUA*       NOT AVBL
MAKAHA RIDGE*    N/A     79  68  69 SW2         N/A
$$

HIZ005>011-250000-
OAHU-

CITY           SKY/WX    TMP DP  RH WIND       PRES   REMARKS
HONOLULU       MOSUNNY   88  64  44 E15       29.98F
KALAELOA         N/A    N/A N/A N/A MISG      29.99F
KANEOHE MCB    PTSUNNY   81  72  74 NE9       29.98F
WHEELER FIELD  FAIR      84  68  57 E14       30.00F
BELLOWS*         N/A    N/A N/A N/A NE14        N/A
KAHUKU*          N/A    N/A N/A N/A VRB1        N/A
WHEELER*       NOT AVBL
WAIANAE HARBOR NOT AVBL
DILLINGHAM*      N/A     93  68  43 MISG        N/A  HX  97
KAHUKU TRN*      N/A     75  66  73 W9G23       N/A
KAWAILOA*        N/A     82  66  57 SE7G18      N/A
KII*             N/A     84  73  70 E14         N/A  HX  91
MAKUA RANGE*     N/A     88  72  58 E6G12       N/A  HX  94
OAHU FOREST NW NOT AVBL
SCHOFIELD BRK*   N/A     70  52  52 MISG        N/A
SCHOFIELD S*   NOT AVBL
WAIANAE VLY*   NOT AVBL
KUAOKALA*      NOT AVBL
HONOULIUULI*   NOT AVBL
MOKUOLOE IS*   NOT AVBL
PALEHUA*       NOT AVBL
WAIAWA PHB*    NOT AVBL
$$

HIZ012>013-250000-
MOLOKAI-

CITY           SKY/WX    TMP DP  RH WIND       PRES   REMARKS
MOLOKAI AIRPT  MOSUNNY   88  70  55 NE12G20   29.98F HX  93
KALAUPAPA      NOT AVBL
MAKAPULAPAI*     N/A     84  73  70 E18G26      N/A  HX  91
MOLOKAI 1*     NOT AVBL
PUU ALII*        N/A     72  66  81 NE3G9       N/A
$$

HIZ016-250000-
KAHOOLAWE-

CITY           SKY/WX    TMP DP  RH WIND       PRES   REMARKS
KAHOOLAWE*       N/A     79 N/A N/A E1          N/A
HAKIOAWA*        N/A     82  71  68 MISG        N/A
HONOKANAIA*      N/A     88  71  56 E18G32    29.93F HX  93
KANELOA*         N/A     82  70  65 E18G32    30.06F
KEALIALALO*    NOT AVBL
LUA MAKIKA*    NOT AVBL
$$

HIZ014>015-250000-
LANAI-

CITY           SKY/WX    TMP DP  RH WIND       PRES   REMARKS
LANAI CITY     LGT RAIN  78  71  79 SW6       30.05F
LANAI 1*       NOT AVBL
$$

HIZ017>028-250000-
MAUI-

CITY           SKY/WX    TMP DP  RH WIND       PRES   REMARKS
KAHULUI        MOSUNNY   89  71  55 NE18      29.96F HX  95
KAPALUA-W MAUI MOSUNNY   84  66  54 E16       29.99
HANA AIRPORT     N/A     84  73  70 E9        30.03F HX  91
HANA*            N/A     84 N/A N/A E8G17       N/A
HALEAKALA SUMM   N/A     54  50  87 NE5G20      N/A
MAALAEA BAY*     N/A     88 N/A N/A N20G26      N/A
HALEAKALA*     NOT AVBL
KAUPO GAP*     NOT AVBL
KULA 1*          N/A     64  62  92 W3          N/A
$$

HIZ023>026-250000-
BIG ISLAND OF HAWAII COAST AND LOWER SLOPES-

CITY           SKY/WX    TMP DP  RH WIND       PRES   REMARKS
KAILUA KONA    SUNNY     88  75  65 SW14      29.94F HX  97
HILO           PTSUNNY   82  71  69 E10       30.00F
HONOKAA*         N/A     81 N/A N/A VRB1        N/A
KAWAIHAE MWT*    N/A     84 N/A N/A W12         N/A
KAWAIHAE*        N/A     82 N/A N/A W12       29.95F
SOUTH POINT*     N/A     77 N/A N/A N16G23      N/A
UPOLU AIRPORT* NOT AVBL
KAMUELA*       PTCLDY    82  66  57 NE10      30.09F
HAKALAU*         N/A     65  60  85 SE3G10      N/A
KALOKO-HONOKO*   N/A     90  73  58 SW9       29.93F HX  98
PALI 2*          N/A     79  66  65 SW12G18     N/A
KEALAKOMO*       N/A     84  72  65 E18G26      N/A
KAUPULEHU*     NOT AVBL
KAPAPALA*        N/A     74  71  89 E8G17       N/A
LOWER KAHUKU*    N/A     66  64  94 E2G12       N/A
PUHE CS*         N/A     90  75  62 W3G13       N/A  HX 100
PUHO CS*         N/A     89  69  50 SW3G9       N/A  HX  93
PTA KEAMUKU*     N/A     75  63  64 CALM        N/A
WAIKOLOA*      NOT AVBL
$$

HIZ027>028-250000-
BIG ISLAND OF HAWAII INTERIOR AND SUMMMITS-

CITY           SKY/WX    TMP DP  RH WIND       PRES   REMARKS
BRADSHAW FIELD PTSUNNY   72  59  64 W12G18    30.33F
MK VISITOR CEN   N/A     54  50  87 SW7         N/A
MAUNA KEA*       N/A     43  32  65 SW15        N/A
MAUNA LOA*       N/A     48  45  87 MISG        N/A
MAUNA LOA 1*   NOT AVBL
PTA KIPUKA*      N/A     54  41  62 N5G17       N/A
PTA RANGE 17*    N/A     68  57  68 NW12G18     N/A
PTA WEST*        N/A     72  63  73 NW13G18     N/A
NENE CABIN*      N/A     61  52  72 E5G12       N/A
AHUMOA*        NOT AVBL
PTA PORTABLE*  NOT AVBL
PUU MALI*        N/A    N/A N/A N/A NE7         N/A
$$

HIC003-250000-
NORTHWEST ISLANDS-

CITY           SKY/WX    TMP DP  RH WIND       PRES   REMARKS
MIDWAY ISLAND  RAIN      75  73  94 NE9       30.17S FOG
MIDWAY NOS*      N/A     77 N/A N/A MISG      30.16S
FRENCH FRIGATE NOT AVBL
$$

PHZ110>124-180-250000-
BUOY REPORTS

STATION/POSITION TIME  TEMP    WIND        PRES    WAVE   SWELL
                       AIR SEA DIR/SP/G            HT/PER HT/DIR
                 (UTC) (F)     (DEG/KT/KT) (MB)    (FT/S) (FT/D)
BUOY 51001       NOT AVBL
BUOY 51101       2250   80 80  110/  6/  8 1017.1F   5/ 8   5/ 80
BUOY 51100       NOT AVBL
BUOY 51002       NOT AVBL
BUOY 51003       2250   82 82   70/ 12/ 14 1014.3F   6/ 7   5/ 70
BUOY 51004       2250   81 81   70/ 16/ 17 1014.0F   7/ 8   3/160
BARBERS PT BUOY  NOT AVBL
WAIMEA BAY BUOY  2304      82                N/A     3/11   2/320
KAILUA BAY BUOY  2304      81                N/A     5/ 8   2/ 50
LANAI BUOY       2315      83                N/A     3/13   2/190
BARBERS PT 2     NOT AVBL
PAUWELA MAUI     2309      81                N/A     5/13   2/340
HILO             2312      81                N/A     5/ 8   2/ 60
KANEOHE BAY BUOY 2306      80                N/A     5/ 8   2/ 40
HANALEI KAUAI    NOT AVBL
KAHULUI HARBOR   2300   82 81              1014.9F
HONOLULU HARBOR  2300   86 82              1015.8F
KILO NALU        NOT AVBL
HILO HARBOR      2300   81 80              1015.6F
MOKUOLOE         2200   85 82  110/  7/ 12 1016.6F
NAWILIWILI       2300   81 82              1016.4F
WHOTS BUOY       NOT AVBL
BUOY 51028       NOT AVBL
$$

......................KEY........................................
  SKY/WX - SKY CONDITIONS/PRESENT WEATHER
  TMP    - TEMPERATURE IN FAHRENHEIT
  DWPT   - DEWPOINT IN FAHRENHEIT
  RH     - RELATIVE HUMIDITY IN PERCENT
  WIND   - DIRECTION AND SPEED /MPH FOR ISLANDS...KTS FOR BUOYS/
  PRES   - MEAN SEA LEVEL PRESSURE IN INCHES OF HG
  VSB    - VISIBILITY IN MILES
  HX     - HEAT INDEX
  WCI    - WIND CHILL INDEX
  VRB    - VARIABLE WIND DIRECTION
  N/A    - NOT AVAILABLE




USA.gov is the U.S. government's official web portal to all federal, state and local government web resources and services.